Flag for USA

Past Weather in Borrego Springs, California, USA — Yesterday and Last 2 Weeks

Now
109 °F

Sunny.


Feels Like: 104 °F
Forecast: 114 / 88 °F
Wind: 8 mph from Northwest

Location: Thermal Airport
Current Time: Aug 13, 2020 at 12:37:43 pm
Latest Report: Aug 13, 2020 at 10:52 am
Visibility: 10 mi
Pressure29.76 "Hg
Humidity: 10%
Dew Point: 42 °F
Location of Borrego SpringsLocation

Past Weather in Borrego Springs — Graph

°F

Borrego Springs Temperature Yesterday

Maximum temperature yesterday: 109 °F (at 1:52 pm)
Minimum temperature yesterday: 77 °F (at 4:52 am)
Average temperature yesterday: 96 °F

High & Low Weather Summary for the Past Weeks

 TemperatureHumidityPressure
High119 °F (Jul 31, 4:52 pm)71% (Aug 2, 5:52 am)29.86 "Hg (Aug 2, 5:52 am)
Low65 °F (Aug 7, 5:52 am)4% (Aug 9, 3:52 pm)29.62 "Hg (Aug 5, 5:52 pm)
Average96 °F24%29.74 "Hg
* Reported Jul 29 10:52 am — Aug 13 10:52 am, Borrego Springs. Weather by CustomWeather, © 2020

Note: Actual official high and low records may vary slightly from our data, if they occured in-between our weather recording intervals... More about our weather records

Borrego Springs Weather History for the Previous 24 Hours

Scroll right to see more
 ConditionsComfort  
Time TempWeatherWind HumidityBarometerVisibility
10:52 am
Thu, Aug 13
109 °FSunny.8 mph10%29.76 "Hg10 mi
9:52 am105 °FSunny.10 mph10%29.76 "Hg10 mi
8:52 am102 °FSunny.8 mph11%29.76 "Hg10 mi
7:52 am93 °FSunny.No wind18%29.75 "Hg10 mi
6:52 am90 °FSunny.No wind20%29.75 "Hg10 mi
5:52 am94 °FClear.10 mph15%29.72 "Hg10 mi
4:52 am94 °FClear.7 mph15%29.72 "Hg10 mi
3:52 am95 °FClear.10 mph15%29.71 "Hg10 mi
2:52 am96 °FClear.14 mph13%29.71 "Hg10 mi
1:52 am96 °FClear.9 mph13%29.72 "Hg10 mi
12:52 am95 °FClear.10 mph17%29.72 "Hg10 mi
11:52 pm
Wed, Aug 12
95 °FClear.8 mph19%29.72 "Hg10 mi
10:52 pm98 °FClear.7 mph17%29.71 "Hg10 mi
9:52 pm95 °FClear.8 mph23%29.71 "Hg10 mi
8:52 pm90 °FClear.No wind34%29.69 "Hg10 mi
7:52 pm94 °FClear.3 mph30%29.67 "Hg10 mi
6:52 pm104 °FSunny.5 mph21%29.66 "Hg10 mi
5:52 pm109 °FSunny.6 mph15%29.66 "Hg9 mi
4:52 pm109 °FSunny.7 mph15%29.68 "Hg10 mi
3:52 pm109 °FSunny.6 mph21%29.70 "Hg10 mi
2:52 pm109 °FSunny.6 mph17%29.72 "Hg10 mi
1:52 pm109 °FSunny.10 mph12%29.74 "Hg10 mi
12:52 pm107 °FSunny.9 mph17%29.76 "Hg10 mi
Weather by CustomWeather, © 2020

See weather overview